Location: Demmingen
(48.6757°N, 10.4375°E)
Time: 14:42:26
(UTC+00:00)

FENGYUN 1C DEB - Visible Passes

Search period start: 03 October 2024 00:00
Search period end: 13 October 2024 00:00
Orbit: 605 x 918 km, 98.3° (Epoch: 02 October)

Date Brightness Start Highest point End Pass type
(mag) Time Alt. Az. Time Alt. Az. Time Alt. Az.
03 Oct ? 18:38:14 10° S 18:43:21 54° W 18:48:55 10° NNW visible
04 Oct ? 18:00:10 10° SSE 18:05:27 78° ENE 18:11:11 10° NNW visible
04 Oct ? 19:41:29 10° SW 19:45:05 18° W 19:48:51 10° NW visible
05 Oct ? 17:22:48 10° SE 17:27:47 41° ENE 17:33:08 10° N visible
05 Oct ? 19:01:52 10° SSW 19:06:44 36° W 19:11:58 10° NNW visible
06 Oct ? 18:23:19 10° S 18:28:40 71° WSW 18:34:26 10° NNW visible
06 Oct ? 20:06:49 10° WSW 20:08:41 12° W 20:10:35 10° WNW visible
07 Oct ? 17:45:30 10° SSE 17:50:50 61° ENE 17:56:33 10° N visible
07 Oct ? 19:25:50 10° SW 19:30:10 24° W 19:34:45 10° NW visible
08 Oct ? 17:08:23 10° SE 17:13:14 33° ENE 17:18:21 10° N visible
08 Oct ? 18:46:41 10° S 18:51:55 47° W 18:57:31 10° NNW visible
09 Oct ? 18:08:25 10° SSE 18:13:55 89° ENE 18:19:47 10° NNW visible
09 Oct ? 19:50:19 10° WSW 19:53:39 16° W 19:57:07 10° NW visible
10 Oct ? 17:30:51 10° SE 17:36:09 48° ENE 17:41:45 10° N visible
10 Oct ? 19:10:21 10° SSW 19:15:13 32° W 19:20:23 10° NNW visible
11 Oct ? 18:31:34 10° S 18:37:03 62° W 18:42:53 10° NNW visible
11 Oct ? 20:16:42 10° W 20:17:10 10° W 20:17:39 10° WNW visible
12 Oct ? 17:53:34 10° SSE 17:59:07 71° ENE 18:05:00 10° N visible
12 Oct ? 19:34:22 10° SW 19:38:35 21° W 19:42:57 10° NW visible
